Regional Weather Roundup
Issued by NWS Upton, NY

Current Version | Previous Version | Text Only | Print | Product List | Glossary On
Versions: 1 2 3 4 5 6 7 8 9 10 11 12 13 14 15 16 17 18 19 20 21 22 23 24 25 26 27 28 29 30 31 32 33 34 35 36 37 38 39 40 41 42 43 44 45 46 47 48 49 50
751 ASUS41 KOKX 232209 RWROKX REGIONAL WEATHER ROUNDUP NATIONAL WEATHER SERVICE NEW YORK NY 600 PM EDT SUN APR 23 2017 NOTE: "FAIR" INDICATES FEW OR NO CLOUDS BELOW 12,000 FEET WITH NO SIGNIFICANT WEATHER AND/OR OBSTRUCTIONS TO VISIBILITY. NYZ071-072-176-178-NJZ106-104-232300- NEW YORK CITY METRO AREA CITY SKY/WX TMP DP RH WIND PRES REMARKS Central Park MOSUNNY 58 40 51 S8 30.10R Wall St Helipt CLOUDY 57 41 55 S7 30.10R Bronx Bot Gard N/A 55 39 54 SE10 30.09R LaGuardia APRT CLOUDY 57 41 55 S10 30.08R Kennedy INTL CLOUDY 53 43 68 S16 30.11R Breezy Point N/A 50 N/A N/A S15G22 N/A Newark/Liberty PTSUNNY 60 39 45 SE7 30.07R Teterboro PTSUNNY 63 39 41 S9 30.05S $$ NYZ177-179-078>081-232300- LONG ISLAND NEW YORK CITY SKY/WX TMP DP RH WIND PRES REMARKS Jones Beach N/A 50 N/A N/A S9G15 N/A Matinecock PT NOT AVBL Farmingdale CLOUDY 52 41 66 S13 30.11R MacArthur/ISP PTSUNNY 52 40 63 S13 30.10R Shirley CLOUDY 51 39 63 S13 30.11R Mt Sinai Harb N/A 54 N/A N/A S9 N/A Westhampton CLOUDY 50 38 63 S8 30.12R East Hampton N/A 49 37 64 S9 30.10S Montauk N/A 50 40 68 S6 30.12R $$ NYZ052-065-067-232300- HUDSON VALLEY CITY SKY/WX TMP DP RH WIND PRES REMARKS White Plains CLOUDY 59 37 44 S9 30.06R Larchmont Harb N/A 54 N/A N/A S10 N/A Croton O-T Hud N/A 61 N/A N/A SE7G14 N/A Newburgh MOSUNNY 68 34 28 SW8 30.04R Montgomery CLOUDY 67 31 26 S8 30.01S Poughkeepsie SUNNY 67 30 25 SW6 30.01S Albany MOSUNNY 70 31 23 W5 30.00S $$ NJZ001-105-106-008-010-013-015-019>022-104-232300- NEW JERSEY CITY SKY/WX TMP DP RH WIND PRES REMARKS Newark/Liberty PTSUNNY 60 39 45 SE7 30.07R Teterboro PTSUNNY 63 39 41 S9 30.05S Caldwell MOSUNNY 67 33 28 SW7 30.06R Somerville MOSUNNY 66 35 31 CALM 30.04S Linden N/A 62 39 42 S7 30.07S Sussex MOSUNNY 68 28 22 SW7 30.04S Andover N/A 65 36 34 SW9 30.04S Trenton MOSUNNY 63 39 41 S6 30.06S Millville CLOUDY 55 45 68 VRB6 30.09S Atlantic City CLOUDY 53 44 71 SE8 30.10R Wrightstown NOT AVBL Toms River PTSUNNY 54 44 69 SE10 30.11R Belmar PTSUNNY 53 40 61 S10 30.11S $$ PAZ047>061-062-071-232300- EASTERN PENNSYLVANIA CITY SKY/WX TMP DP RH WIND PRES REMARKS Philadelphia CLOUDY 62 47 57 S16 30.07S Allentown MOSUNNY 67 38 34 CALM 30.05S Scranton SUNNY 69 29 22 VRB5 30.01F $$ CTZ002-004>006-009-010-012-RIZ004-006-007-MAZ004-011-015-232300- SOUTHERN NEW ENGLAND IN CT CITY SKY/WX TMP DP RH WIND PRES REMARKS Bradley INTL MOSUNNY 68 31 25 S15 30.01S Hartford SUNNY 65 40 39 S14 30.03R Danbury SUNNY 62 38 40 S10 30.05R Wtrbury/Oxford PTSUNNY 61 36 39 S14 30.06R Bridgeport SUNNY 59 42 53 S13 30.07R Meriden SUNNY 62 37 39 S10G20 30.06R New Haven SUNNY 55 43 63 S10 30.08R Chester N/A 54 39 58 S10 30.09R Groton CLOUDY 50 42 74 S9 30.10R Wilimantic SUNNY 62 39 42 S16 30.05R IN RI CITY SKY/WX TMP DP RH WIND PRES REMARKS Providence MOSUNNY 55 43 63 S12 30.08R Block Island MOSUNNY 49 41 74 S14 30.11R Westerly CLOUDY 51 40 65 S12 30.11R IN MA CITY SKY/WX TMP DP RH WIND PRES REMARKS Boston MOSUNNY 51 42 71 E17 30.03S Worcester SUNNY 64 26 23 SW8 30.02S Westfield SUNNY 68 34 28 S13 30.00R Provincetown SUNNY 52 41 66 S13 30.09R Nantucket PTSUNNY 47 40 76 S9 30.10S $$ ANZ330-335-338-340-345-350-353-355-232300- COASTAL MARINE OBSERVATIONS STATION/POSITION TIME SKY/WX TEMP WIND PRES VSBY WAVE AIR SEA DIR/SP/G HT/PER (UTC) (F) (DEG/KT/KT) (MB) (MI) (FT/S) NY HARB ENTRANCE 2050 50 51 180/ 14/ 16 1018.9 3/10 20 S FIRE ISLAND 2150 49 50 170/ 10/ 12 1019.3 3/11 GREAT SOUTH BAY 2100 50 56 190/ 10/ 12 N/A 23 SSW MONTAUK P 2050 47 47 1019.5 3/11 15 E BARNEGAT LI 2130 51 N/A 4/11 HUDSON CANYON 2050 48 49 110/ 4/ 6 1019.9 4/11 KINGS POINT 2130 55 49 220/ 14/ 16 1018.3 EXECUTION ROCKS NOT AVBL CENTRAL LI SOUND 2130 52 180/ 10/ 12 N/A 0 EASTERN LI SOUND NOT AVBL ROBBINS REEF 2130 52 160/ 18/ 19 1019.0 $$ >>>>>>>>>>>>>>>>>>>>>>>>>>>> KEY <<<<<<<<<<<<<<<<<<<<<<<<<<< > < > SKY/WX - Sky Condition/Present Weather < > TMP - Temperature in Fahrenheit < > DP - Dew Point in Fahrenheit < > RH - Relative Humidity in Percent < > WIND - Direction (from) and Speed in MPH < > PRES - Mean Sea Level Pressure (inches of Hg) < > WCI - Wind Chill Index < > VSB - VISIBILITY IN MILES < > HX - HEAT INDEX < > TC - TEMPERATURE IN CELSIUS < > VRB - VARIABLE WIND DIRECTION < > < >>>>>>>>>>>>>>>>>>>>>>>>>>>> KEY <<<<<<<<<<<<<<<<<<<<<<<<<<<

USA.gov is the U.S. government's official web portal to all federal, state and local government web resources and services.